This is the latest recevied weather packets stored in our database for station/object s59zo-6. If no packets are shown the sender has not sent any weather packets the latest 10 day(s).
| Time | Temp. | Humidity | Pressure | Rain* | Wind** | Luminosity | Snow |
|---|---|---|---|---|---|---|---|
| 1788581404 | 17.22° C | 71% | 1016.1 hPa | 0 mm | - | - | - |
| 1788581103 | 17.22° C | 71% | 1016.2 hPa | 0 mm | - | - | - |
| 1788580804 | 17.22° C | 71% | 1016.3 hPa | 0 mm | - | - | - |
| 1788580504 | 17.78° C | 68% | 1016.1 hPa | 0 mm | - | - | - |
| 1788580204 | 17.78° C | 68% | 1016.2 hPa | 0 mm | - | - | - |
| 1788579907 | 17.78° C | 67% | 1016.1 hPa | 0 mm | - | - | - |
| 1788579604 | 17.78° C | 67% | 1016.2 hPa | 0 mm | - | - | - |
| 1788579303 | 17.78° C | 66% | 1016.1 hPa | 0 mm | - | - | - |
| 1788579004 | 17.78° C | 65% | 1016 hPa | 0 mm | - | - | - |
| 1788578704 | 18.33° C | 65% | 1016 hPa | 0 mm | - | - | - |
| 1788578404 | 18.89° C | 64% | 1016.1 hPa | 0 mm | - | - | - |
| 1788578104 | 18.33° C | 64% | 1016.1 hPa | 0 mm | - | - | - |
| 1788577804 | 18.33° C | 64% | 1016 hPa | 0 mm | - | - | - |
| 1788577504 | 18.33° C | 64% | 1016 hPa | 0 mm | - | - | - |
| 1788577204 | 18.89° C | 64% | 1016.1 hPa | 0 mm | - | - | - |
| 1788576904 | 18.89° C | 63% | 1016.1 hPa | 0 mm | - | - | - |
| 1788576604 | 18.89° C | 62% | 1016.1 hPa | 0 mm | - | - | - |
| 1788576303 | 19.44° C | 62% | 1016 hPa | 0 mm | - | - | - |
| 1788576005 | 19.44° C | 61% | 1016 hPa | 0 mm | - | - | - |
| 1788575704 | 19.44° C | 61% | 1016 hPa | 0 mm | - | - | - |
| 1788575404 | 20° C | 60% | 1015.8 hPa | 0 mm | - | - | - |
| 1788575104 | 20° C | 60% | 1015.9 hPa | 0 mm | - | - | - |
| 1788574804 | 20° C | 60% | 1016 hPa | 0 mm | - | - | - |
| 1788574503 | 20° C | 60% | 1015.9 hPa | 0 mm | - | - | - |
| 1788574204 | 20° C | 60% | 1016.1 hPa | 0 mm | - | - | - |
* Rain latest hour (hover to see other rain measurements)
** Current wind speed in m/s (hover to see current wind gust speed)